Content
SEND FEEDBACK

Daily
Averages
Monthly
Summary
United States of America

TOKELAND, WASHINGTON


Home > North America > United States > Washington
Elevation: 2 feet     Latitude: 46 46N     Longitude: 124 05W

WEATHER
 
SELECT A DAY
Number of Records: 211,193;   Date Range: 7/1/96 - 11/22/14
 
SHARE

PRINT THIS DATA

[ ← Previous Day ]
WEATHER ALMANAC - FEBRUARY 13, 2013
[ Next Day → ]
[ °C ]   °F
Weather ElementAverageHighLow
Temperature45.9 °F48.9 °F (1:53 pm)41 °F (10:53 pm)
Dewpoint41.7 °F44.6 °F (12:23 am)39 °F (3:53 am)
Humidity85.3 %100 % (11:35 pm)74 % (2:53 pm)
Barometer30.45 in30.52 in (10:53 pm)30.38 in (12:23 am)
Wind Speed6.8 mph13.8 mph (12:53 am)
Wind Gust18.4 mph (12:23 am)
Weather ElementAverage
Visibility8.5 mi
Wind DirectionSSW (215.7 °)

Weather ElementTotal
Precipitation---
Heating Degree Days20.1 (Base 65)
Averaged from 44 records on February 13, 2013
WEATHER CONDITIONS BREAKOUT
WIND DIRECTION BREAKOUT
WEATHER BY HOUR - FEBRUARY 13, 2013
[ °C ]   °F
Local TimeTemperatureDewpointHumidityBarometerVisibilityWind DirectionWind SpeedGust SpeedPrecipitationEventsConditions
12:23 AM46.4 °F44.6 °F93 %30.38 in4.0 miWest (270°)12.7 mph18.4 mphOvercast
12:31 AM46.4 °F44.6 °F93 %30.39 in5.0 miWest (270°)11.5 mphOvercast
12:42 AM46.4 °F44.6 °F93 %30.38 in5.0 miWest (270°)10.4 mphOvercast
12:53 AM46.0 °F44.1 °F93 %30.40 in4.0 miWest (260°)13.8 mphOvercast
12:58 AM46.4 °F44.6 °F93 %30.39 in5.0 miWest (260°)12.7 mphOvercast
1:09 AM46.4 °F44.6 °F93 %30.39 in4.0 miWest (260°)10.4 mphOvercast
1:53 AM45.0 °F43.0 °F93 %30.40 in7.0 miWSW (240°)9.2 mphOvercast
2:34 AM46.4 °F41.0 °F81 %30.40 in10.0 miWest (280°)5.8 mphOvercast
2:53 AM46.0 °F42.1 °F86 %30.41 in10.0 miWest (280°)3.5 mphOvercast
3:53 AM46.0 °F39.0 °F76 %30.41 in10.0 miWSW (240°)5.8 mphOvercast
4:53 AM46.0 °F39.9 °F79 %30.42 in10.0 miWest (280°)4.6 mphOvercast
5:29 AM44.6 °F41.0 °F87 %30.41 in10.0 miWest (270°)3.5 mphOvercast
5:53 AM46.0 °F41.0 °F83 %30.43 in10.0 miWest (270°)5.8 mphMostly Cloudy
6:53 AM45.0 °F41.0 °F86 %30.44 in10.0 miWSW (250°)3.5 mphOvercast
7:53 AM45.0 °F41.0 °F86 %30.45 in10.0 miWest (260°)3.5 mphOvercast
8:53 AM46.0 °F41.0 °F83 %30.46 in9.0 miWest (270°)6.9 mphOvercast
9:53 AM46.9 °F41.0 °F80 %30.48 in10.0 miWSW (250°)9.2 mphOvercast
10:53 AM46.9 °F42.1 °F83 %30.48 in10.0 miWSW (240°)9.2 mphOvercast
11:00 AM46.4 °F42.8 °F87 %30.47 in10.0 miSW (230°)9.2 mphOvercast
11:48 AM46.4 °F42.8 °F87 %30.47 in10.0 miWSW (250°)6.9 mphOvercast
11:53 AM48.0 °F42.1 °F80 %30.48 in10.0 miWSW (250°)6.9 mphOvercast
12:37 PM48.2 °F42.8 °F82 %30.47 in10.0 miWSW (250°)10.4 mphOvercast
12:53 PM48.0 °F42.1 °F80 %30.48 in10.0 miWSW (250°)8.1 mphOvercast
1:01 PM48.2 °F42.8 °F82 %30.46 in10.0 miWSW (250°)9.2 mphOvercast
1:25 PM48.2 °F41.0 °F76 %30.45 in10.0 miWSW (250°)11.5 mphOvercast
1:37 PM48.2 °F41.0 °F76 %30.45 in10.0 miWSW (250°)8.1 mphOvercast
1:53 PM48.9 °F42.1 °F77 %30.47 in10.0 miWSW (250°)10.4 mphOvercast
2:14 PM48.2 °F42.8 °F82 %30.45 in10.0 miWest (260°)9.2 mphOvercast
2:53 PM48.0 °F39.9 °F74 %30.47 in10.0 miWest (270°)5.8 mphOvercast
3:03 PM48.2 °F41.0 °F76 %30.46 in10.0 miWest (270°)6.9 mphOvercast
3:53 PM48.0 °F41.0 °F77 %30.48 in10.0 miWest (270°)9.2 mphOvercast
4:01 PM46.4 °F41.0 °F81 %30.46 in10.0 miWest (280°)6.9 mphOvercast
4:53 PM46.9 °F41.0 °F80 %30.48 in10.0 miSW (230°)5.8 mphOvercast
5:01 PM46.4 °F41.0 °F81 %30.47 in10.0 miSW (230°)8.1 mphOvercast
5:53 PM46.0 °F41.0 °F83 %30.47 in10.0 miWSW (250°)5.8 mphMostly Cloudy
6:53 PM44.1 °F41.0 °F89 %30.48 in10.0 miSW (230°)3.5 mphScattered Clouds
7:53 PM44.1 °F41.0 °F89 %30.50 in10.0 miCalmMostly Cloudy
8:53 PM44.1 °F42.1 °F93 %30.50 in10.0 miCalmOvercast
9:53 PM43.0 °F41.0 °F93 %30.50 in10.0 miCalmOvercast
10:53 PM41.0 °F39.9 °F96 %30.52 in6.0 miCalmMostly Cloudy
11:20 PM42.8 °F41.0 °F93 %30.51 in4.0 miNE (50°)3.5 mphOvercast
11:35 PM41.0 °F41.0 °F100 %30.51 in2.5 miENE (70°)4.6 mphOvercast
11:51 PM42.8 °F39.2 °F87 %30.51 in4.0 miENE (70°)3.5 mphOvercast
11:53 PM42.1 °F39.9 °F92 %30.52 in4.0 miENE (60°)3.5 mphOvercast
Hourly data recorded from KHQM, located miles away from Tokeland, Washington







STORIES FROM OUR PARTNERS